| time (UTC) | temp C | wind direction | speed KPH | gust KPH | rain 1hr cm | rain 24hr cm | rain mn cm | humidity % | barometer mb |
| 20260906220154 | 24 | 76 | 1.6 | 11.3 | 0.00 | 0.00 | 0.00 | 72 | 1018.9 |
| 20260906214627 | 25 | 134 | 3.2 | 6.4 | 0.00 | 0.00 | 0.00 | 71 | 1019.3 |
| 20260906213106 | 25 | 76 | 1.6 | 12.9 | 0.00 | 0.00 | 0.00 | 71 | 1019.2 |
| 20260906211628 | 25 | 38 | 4.8 | 11.3 | 0.00 | 0.00 | 0.00 | 71 | 1019.5 |
| 20260906210149 | 26 | 73 | 1.6 | 6.4 | 0.00 | 0.00 | 0.00 | 70 | 1019.6 |
| 20260906204644 | 25 | 23 | 3.2 | 9.7 | 0.00 | 0.00 | 0.00 | 70 | 1019.8 |
| 20260906203136 | 26 | 321 | 3.2 | 11.3 | 0.00 | 0.00 | 0.00 | 70 | 1019.9 |
| 20260906201629 | 26 | 40 | 4.8 | 12.9 | 0.00 | 0.00 | 0.00 | 69 | 1019.7 |
| 20260906200141 | 26 | 220 | 3.2 | 8.0 | 0.00 | 0.00 | 0.00 | 68 | 1019.6 |
| 20260906194624 | 26 | 59 | 1.6 | 11.3 | 0.00 | 0.00 | 0.00 | 69 | 1019.7 |
| 20260906193154 | 27 | 183 | 3.2 | 12.9 | 0.00 | 0.00 | 0.00 | 71 | 1019.7 |
| 20260906191650 | 27 | 231 | 1.6 | 8.0 | 0.00 | 0.00 | 0.00 | 70 | 1020.1 |
| 20260906190204 | 27 | 227 | 0.0 | 4.8 | 0.00 | 0.00 | 0.00 | 70 | 1020.0 |
| 20260906184654 | 26 | 122 | 1.6 | 11.3 | 0.00 | 0.00 | 0.00 | 72 | 1020.1 |
| 20260906183116 | 26 | 133 | 3.2 | 12.9 | 0.00 | 0.00 | 0.00 | 70 | 1020.2 |
| 20260906181652 | 26 | 27 | 0.0 | 6.4 | 0.00 | 0.00 | 0.00 | 74 | 1020.4 |
| 20260906180137 | 26 | 216 | 1.6 | 8.0 | 0.00 | 0.00 | 0.00 | 74 | 1020.3 |
| 20260906174631 | 26 | 86 | 1.6 | 6.4 | 0.00 | 0.00 | 0.00 | 71 | 1020.6 |
| 20260906173144 | 27 | 324 | 3.2 | 11.3 | 0.00 | 0.00 | 0.00 | 70 | 1020.9 |
| 20260906171625 | 28 | 247 | 1.6 | 6.4 | 0.00 | 0.00 | 0.00 | 67 | 1021.1 |
| 20260906170141 | 28 | 20 | 0.0 | 4.8 | 0.00 | 0.00 | 0.00 | 67 | 1021.2 |
| 20260906164717 | 27 | 49 | 0.0 | 3.2 | 0.00 | 0.00 | 0.00 | 68 | 1020.9 |
| 20260906163133 | 27 | 38 | 1.6 | 4.8 | 0.00 | 0.00 | 0.00 | 68 | 1021.0 |
| 20260906161625 | 27 | 61 | 1.6 | 4.8 | 0.00 | 0.00 | 0.00 | 68 | 1021.0 |
| 20260906160203 | 26 | 360 | 0.0 | 6.4 | 0.00 | 0.00 | 0.00 | 71 | 1021.1 |
| 20260906154632 | 26 | 350 | 0.0 | 3.2 | 0.00 | 0.00 | 0.00 | 73 | 1021.0 |
| 20260906153149 | 25 | 57 | 0.0 | 4.8 | 0.00 | 0.00 | 0.00 | 74 | 1020.9 |
| 20260906151648 | 24 | 63 | 0.0 | 3.2 | 0.00 | 0.00 | 0.00 | 78 | 1020.9 |
| 20260906150123 | 24 | 75 | 1.6 | 3.2 | 0.00 | 0.00 | 0.00 | 78 | 1021.3 |
| 20260906144700 | 23 | 179 | 0.0 | 3.2 | 0.00 | 0.00 | 0.00 | 80 | 1021.1 |
| 20260906143123 | 23 | 57 | 1.6 | 3.2 | 0.00 | 0.00 | 0.00 | 81 | 1020.9 |
| 20260906141632 | 22 | 327 | 0.0 | 3.2 | 0.00 | 0.00 | 0.00 | 83 | 1021.0 |
| 20260906140157 | 21 | 55 | 0.0 | 3.2 | 0.00 | 0.00 | 0.00 | 85 | 1021.2 |
| 20260906134655 | 20 | 259 | 0.0 | 3.2 | 0.00 | 0.00 | 0.00 | 88 | 1021.0 |
| 20260906133122 | 18 | 259 | 0.0 | 1.6 | 0.00 | 0.00 | 0.00 | 92 | 1021.0 |
| 20260906131627 | 17 | 259 | 0.0 | 1.6 | 0.00 | 0.00 | 0.00 | 96 | 1020.9 |
| 20260906130136 | 16 | 259 | 0.0 | 1.6 | 0.00 | 0.00 | 0.00 | 98 | 1021.0 |
| 20260906124629 | 15 | 259 | 0.0 | 0.0 | 0.00 | 0.00 | 0.00 | 97 | 1021.1 |
| 20260906123130 | 15 | 259 | 0.0 | 0.0 | 0.00 | 0.00 | 0.00 | 97 | 1020.8 |
| 20260906121617 | 15 | 259 | 0.0 | 0.0 | 0.00 | 0.00 | 0.00 | 97 | 1020.7 |
| 20260906120136 | 15 | 259 | 0.0 | 0.0 | 0.00 | 0.00 | 0.00 | 97 | 1020.5 |
| 20260906114630 | 15 | 259 | 0.0 | 0.0 | 0.00 | 0.03 | 0.00 | 97 | 1020.3 |
| 20260906113135 | 15 | 259 | 0.0 | 0.0 | 0.00 | 0.03 | 0.00 | 97 | 1020.1 |
| 20260906111641 | 15 | 259 | 0.0 | 0.0 | 0.00 | 0.03 | 0.00 | 97 | 1019.9 |
| 20260906110128 | 15 | 259 | 0.0 | 0.0 | 0.00 | 0.03 | 0.00 | 97 | 1019.7 |
| 20260906104637 | 15 | 259 | 0.0 | 0.0 | 0.00 | 0.03 | 0.00 | 97 | 1019.7 |
| 20260906103103 | 15 | 259 | 0.0 | 0.0 | 0.00 | 0.03 | 0.00 | 97 | 1019.7 |
| 20260906101636 | 15 | 259 | 0.0 | 0.0 | 0.00 | 0.03 | 0.00 | 97 | 1019.6 |
| 20260906100137 | 15 | 259 | 0.0 | 0.0 | 0.00 | 0.03 | 0.00 | 97 | 1019.6 |
| 20260906094603 | 15 | 259 | 0.0 | 0.0 | 0.00 | 0.03 | 0.00 | 97 | 1019.6 |
| 20260906093102 | 15 | 259 | 0.0 | 0.0 | 0.00 | 0.03 | 0.00 | 97 | 1019.7 |
| 20260906091625 | 15 | 259 | 0.0 | 0.0 | 0.00 | 0.03 | 0.00 | 97 | 1019.8 |
| 20260906090158 | 15 | 259 | 0.0 | 0.0 | 0.00 | 0.03 | 0.00 | 97 | 1019.8 |
| 20260906084621 | 15 | 259 | 0.0 | 0.0 | 0.00 | 0.03 | 0.00 | 97 | 1019.9 |
| 20260906083106 | 15 | 259 | 0.0 | 0.0 | 0.00 | 0.03 | 0.00 | 97 | 1019.9 |
| 20260906081620 | 15 | 259 | 0.0 | 0.0 | 0.00 | 0.03 | 0.00 | 97 | 1019.7 |
| 20260906080121 | 15 | 259 | 0.0 | 0.0 | 0.00 | 0.03 | 0.00 | 97 | 1019.8 |
| 20260906074649 | 15 | 259 | 0.0 | 1.6 | 0.00 | 0.03 | 0.00 | 97 | 1019.8 |
| 20260906073134 | 15 | 259 | 0.0 | 0.0 | 0.00 | 0.03 | 0.00 | 97 | 1019.7 |
| 20260906071624 | 15 | 259 | 0.0 | 1.6 | 0.00 | 0.03 | 0.00 | 97 | 1019.9 |
| 20260906070110 | 15 | 259 | 0.0 | 0.0 | 0.00 | 0.03 | 0.00 | 96 | 1019.9 |
| 20260906064542 | 15 | 259 | 0.0 | 0.0 | 0.00 | 0.03 | 0.00 | 96 | 1019.8 |
| 20260906063132 | 15 | 259 | 0.0 | 0.0 | 0.00 | 0.03 | 0.00 | 96 | 1019.9 |
| 20260906061603 | 15 | 259 | 0.0 | 0.0 | 0.00 | 0.03 | 0.00 | 96 | 1020.1 |
| 20260906060150 | 16 | 259 | 0.0 | 0.0 | 0.00 | 0.03 | 0.00 | 95 | 1019.8 |
| 20260906054654 | 16 | 259 | 0.0 | 0.0 | 0.00 | 0.03 | 0.00 | 96 | 1019.6 |
| 20260906053139 | 16 | 259 | 0.0 | 1.6 | 0.00 | 0.03 | 0.00 | 96 | 1019.7 |
| 20260906051557 | 16 | 259 | 0.0 | 0.0 | 0.00 | 0.03 | 0.00 | 96 | 1019.3 |
| 20260906050053 | 16 | 259 | 0.0 | 0.0 | 0.00 | 0.03 | 0.00 | 96 | 1019.3 |
| 20260906044548 | 16 | 259 | 0.0 | 0.0 | 0.00 | 0.03 | 0.03 | 96 | 1019.5 |
| 20260906043104 | 16 | 259 | 0.0 | 0.0 | 0.00 | 0.03 | 0.03 | 96 | 1019.5 |
| 20260906041619 | 16 | 259 | 0.0 | 0.0 | 0.00 | 0.03 | 0.03 | 96 | 1018.9 |
| 20260906040121 | 16 | 259 | 0.0 | 0.0 | 0.00 | 0.03 | 0.03 | 95 | 1018.7 |
| 20260906034632 | 17 | 259 | 0.0 | 0.0 | 0.00 | 0.03 | 0.03 | 96 | 1018.8 |
| 20260906033145 | 17 | 259 | 0.0 | 0.0 | 0.00 | 0.03 | 0.03 | 96 | 1018.6 |
| 20260906031626 | 17 | 259 | 0.0 | 1.6 | 0.00 | 0.03 | 0.03 | 96 | 1018.8 |
| 20260906024558 | 16 | 204 | 0.0 | 0.0 | 0.00 | 0.03 | 0.03 | 95 | 1018.6 |
| 20260906023127 | 16 | 204 | 0.0 | 0.0 | 0.00 | 0.03 | 0.03 | 95 | 1018.4 |
| 20260906021646 | 17 | 204 | 0.0 | 0.0 | 0.00 | 0.03 | 0.03 | 95 | 1018.5 |
| 20260906020125 | 17 | 204 | 0.0 | 0.0 | 0.00 | 0.03 | 0.03 | 94 | 1018.3 |
| 20260906014553 | 17 | 204 | 0.0 | 1.6 | 0.00 | 0.03 | 0.03 | 94 | 1018.4 |
| 20260906013123 | 17 | 204 | 0.0 | 0.0 | 0.00 | 0.03 | 0.03 | 93 | 1018.2 |
| 20260906011624 | 17 | 204 | 0.0 | 0.0 | 0.00 | 0.03 | 0.03 | 92 | 1018.2 |
| 20260906010147 | 18 | 204 | 0.0 | 1.6 | 0.00 | 0.03 | 0.03 | 91 | 1018.3 |
| 20260906004635 | 18 | 204 | 0.0 | 0.0 | 0.00 | 0.03 | 0.03 | 89 | 1018.4 |
| 20260906003123 | 19 | 204 | 0.0 | 0.0 | 0.00 | 0.03 | 0.03 | 87 | 1018.6 |
| 20260906001638 | 20 | 204 | 0.0 | 0.0 | 0.00 | 0.03 | 0.03 | 85 | 1018.6 |
| 20260906000135 | 21 | 292 | 0.0 | 1.6 | 0.00 | 0.03 | 0.03 | 81 | 1018.6 |
| 20260905234608 | 21 | 309 | 1.6 | 4.8 | 0.00 | 0.03 | 0.03 | 79 | 1018.7 |
| 20260905233128 | 21 | 348 | 1.6 | 12.9 | 0.00 | 0.03 | 0.03 | 78 | 1018.8 |
| 20260905231637 | 22 | 90 | 1.6 | 9.7 | 0.00 | 0.03 | 0.03 | 77 | 1018.6 |
| 20260905230110 | 22 | 177 | 0.0 | 11.3 | 0.00 | 0.03 | 0.03 | 78 | 1018.6 |
| 20260905224630 | 22 | 36 | 0.0 | 12.9 | 0.00 | 0.03 | 0.03 | 76 | 1018.7 |
| 20260905223126 | 23 | 9 | 1.6 | 8.0 | 0.00 | 0.03 | 0.03 | 74 | 1018.8 |
| 20260905221609 | 23 | 267 | 3.2 | 12.9 | 0.00 | 0.03 | 0.03 | 75 | 1018.9 |